ARIANE 5 DEB (SYLDA), 42694

Orbit data source: Space-Track

ARIANE 5 DEB (SYLDA), 42694 is space debris in HEO originally from a launch on Thu, 04 May 2017 UTC launched from the French Guiana (FRGUI). Debris objects in space refer to the collection of defunct objects orbiting the Earth. Examples of debris include non-operational satellites, rocket bodies, and fragments generated from explosions, collisions, or faulty payload assembly.

Loading next visibility...
Identifier
42694, 2017-023D
Orbit
HEO
Country
Flag of FRFR
Related business
Manufacturer
ADS/Bremen
Mission
Spacecraft
Bus & Motor
SYLDA 5, Unknown motor
Mass
440 kg wet, 440 kg dry
Launch date (UTC)
2017-05-04 (9 years ago)
Launch vehicle
Unknown
Launch site
French Guiana (FRGUI)
Object type
Payload
Rocket body
Debris
Shape & HBR
Cyl, 3.6 m
Radar Cross Section
27.391 m², Large (>1 m²)

Expand to show TLE details & history
Last TLE update: 9 hours ago

TLE from 9 hours ago
0 ARIANE 5 DEB (SYLDA)
1 42694U 17023D   26255.04716051 -.00000197  00000-0 -85225-3 0  9996
2 42694   3.7110 109.5705 5464415 334.9743   6.3317  4.56116929120150
Epoch: 2026-09-12T01:07Z
TLE epoch observation values (Epoch: 2026-09-12T01:07:54.668Z)
Latitude
0.00004°
Longitude
101.59357°
Altitude
835.184 km
Speed
9.196 km/s
True Right ascension
07h 18m 31s
True Declination
0° 00' 00"
Sunlit
Object was in daylight at epoch
Visualization orbit readout
Latitude
Unknown
Longitude
Unknown
Altitude
Unknown
Speed
Unknown
Apparent Right ascension
Unknown
Apparent Declination
Unknown
Sunlit
N/A
Visualization observer readout
Local Sidereal Time
02:57:39
Azimuth
Unknown
Elevation
Unknown
Doppler factor
Unknown
Orbital elements
Apogee altitude
17,380.526 km
Perigee altitude
590.082 km
Semi-major axis
15,363.441 km
Eccentricity
0.54644
Inclination
3.711°
RAAN
109.5705°
Arg. of periapsis
334.9743°
True anomaly
25.19141°
Mean anomaly
6.3317°
Eccentric anomaly
13.79977°
Mean motion
1.13975 °/min
Orbital period
315.86 mins
BSTAR
-0.00085225
Loading maneuver chart data...
Computing Atmospheric mass density...
Loading historical data...
Loading historical data...
Loading historical data...
Loading historical data...
Loading historical data...
Loading historical data...
Loading historical data...
Other satellites on launch #23 in the year 2017 (2017-05-04 UTC)

Documentation

Showing up to 5 results
|